This demonstration page uses our WeatherBlox Daily Observations layout. Learn more.

Left ArrowRight Arrow

47.50024, -111.30081

Hourly Observations for January 20, 2016

Temp ( °F °C ) Dew Point ( °F °C ) Humidity (%) Winds ( mph kmh ) Pressure ( in mb ) Visibility ( mi km ) Precip ( " mm )
12:53 am 00:53 Cloudy 35 1.7 29 -1.7 78 78 SSW 16 26 29.78 1008 10 16 0.00 0.00
1:53 am 01:53 Cloudy 33 0.6 30 -1.1 89 89 SSW 9 15 29.79 1009 10 16 0.00 0.03
2:53 am 02:53 Cloudy with Light Snow 33 0.6 30 -1.1 89 89 SSW 10 17 29.80 1009 5 8 0.00 0.03
3:53 am 03:53 Cloudy 33 0.6 31 -0.6 92 92 S 9 15 29.81 1010 10 16 0.00 0.03
4:53 am 04:53 Cloudy 33 0.6 31 -0.6 92 92 S 8 13 29.82 1010 10 16 0.00 0.03
5:53 am 05:53 Cloudy 32 0 30 -1.1 92 92 WNW 5 7 29.86 1011 10 16 0.00 0.00
6:06 am 06:06 Cloudy with Light Snow 32 0 30 -1.1 92 92 NW 6 9 29.88 1012 4 6 0.00 0.03
6:35 am 06:35 Cloudy 32 0 31 -0.6 96 96 N 5 7 29.88 1012 9 14 0.01 0.25
6:50 am 06:50 Cloudy with Mist and Fog 32 0 30 -1 93 93 NNW 6 9 29.88 1012 2 3 0.00 0.00
6:53 am 06:53 Cloudy with Mist and Fog 32 0 31 -0.6 96 96 NNW 6 9 29.88 1012 1 2 0.01 0.25
6:57 am 06:57 Cloudy with Mist and Fog 31 -0.6 31 -0.6 100 100 NNW 6 9 29.88 1012 1 1 0.00 0.00
7:11 am 07:11 Cloudy with Freezing Fog 31 -0.6 31 -0.6 100 100 N 6 9 29.91 1013 1 1 0.00 0.00
7:17 am 07:17 Mostly Cloudy with Freezing Fog 31 -0.6 31 -0.6 100 100 N 6 9 29.91 1013 1 1 0.00 0.00
7:36 am 07:36 Cloudy with Freezing Fog 30 -1 30 -1 100 100 NNW 6 9 29.91 1013 1 1 0.00 0.00
7:53 am 07:53 Cloudy with Mist and Fog 31 -0.6 30 -1.1 96 96 NW 6 9 29.92 1013 1 1 0.00 0.00
8:00 am 08:00 Cloudy with Mist and Fog 30 -1 30 -1 100 100 NW 6 9 29.94 1014 3 5 0.00 0.00
8:21 am 08:21 Cloudy with Light Snow 31 -0.6 31 -0.6 100 100 NW 7 11 29.94 1014 3 4 0.00 0.03
8:30 am 08:30 Cloudy with Light Snow 30 -1 30 -1 100 100 NW 8 13 29.94 1014 2 2 0.00 0.00
8:41 am 08:41 Cloudy with Light Snow 31 -0.6 30 -1.1 96 96 NW 10 17 29.97 1015 1 2 0.00 0.03
8:53 am 08:53 Cloudy with Light Snow 31 -0.6 29 -1.7 92 92 NW 13 20 29.97 1015 1 2 0.00 0.03
9:35 am 09:35 Cloudy with Light Snow 30 -1.1 29 -1.7 96 96 WNW 9 15 30.03 1017 1 1 0.02 0.51
9:44 am 09:44 Cloudy with Light Snow 28 -2 28 -2 100 100 WNW 8 13 30.06 1018 1 2 0.00 0.00
9:53 am 09:53 Cloudy with Light Snow 29 -1.7 28 -2.2 96 96 NW 10 17 30.02 1017 2 3 0.02 0.51
9:59 am 09:59 Cloudy with Light Snow 29 -1.7 28 -2.2 96 96 NW 12 19 30.06 1018 3 5 0.00 0.03
10:08 am 10:08 Cloudy with Light Snow 28 -2 28 -2 100 100 NW 10 17 30.06 1018 3 5 0.00 0.00
10:14 am 10:14 Cloudy with Light Snow 28 -2 28 -2 100 100 NW 9 15 30.06 1018 2 3 0.00 0.00
10:24 am 10:24 Cloudy with Light Snow 30 -1 28 -2 93 93 NNW 7 11 30.06 1018 2 3 0.00 0.00
10:41 am 10:41 Cloudy with Light Snow 30 -1 28 -2 93 93 NNW 6 9 30.06 1018 2 3 0.00 0.00
10:53 am 10:53 Cloudy with Mist and Fog 30 -1.1 27 -2.8 88 88 NW 8 13 30.04 1017 6 10 0.01 0.25
11:20 am 11:20 Cloudy 30 -1 27 -3 86 86 NW 6 9 30.06 1018 10 16 0.00 0.00
11:53 am 11:53 Cloudy 32 0 27 -2.8 82 82 WNW 6 9 30.05 1018 10 16 0.00 0.00
12:53 pm 12:53 Cloudy 33 0.6 29 -1.7 85 85 Calm 30.07 1018 10 16 0.00 0.00
1:13 pm 13:13 Cloudy 34 1.1 29 -1.7 82 82 Calm 30.06 1018 10 16 0.00 0.00
1:53 pm 13:53 Cloudy 34 1.1 29 -1.7 82 82 Calm 30.10 1019 10 16 0.00 0.00
2:27 pm 14:27 Cloudy 33 0.6 29 -1.7 85 85 Calm 30.09 1019 10 16 0.00 0.00
2:53 pm 14:53 Cloudy 33 0.6 29 -1.7 85 85 Calm 30.13 1020 10 16 0.00 0.00
3:53 pm 15:53 Cloudy 32 0 28 -2.2 85 85 E 6 9 30.16 1021 10 16 0.00 0.00
4:53 pm 16:53 Cloudy 31 -0.6 27 -2.8 85 85 E 5 7 30.19 1023 10 16 0.00 0.00
5:53 pm 17:53 Cloudy 30 -1.1 27 -2.8 88 88 ESE 6 9 30.22 1024 10 16 0.00 0.00
6:53 pm 18:53 Cloudy 29 -1.7 26 -3.3 89 89 E 5 7 30.24 1024 10 16 0.00 0.00
7:53 pm 19:53 Cloudy 27 -2.8 25 -3.9 92 92 E 5 7 30.25 1025 9 14 0.00 0.00
8:53 pm 20:53 Clear 21 -6.1 21 -6.1 100 100 SSW 3 6 30.30 1026 7 11 0.00 0.00
9:53 pm 21:53 Mostly Cloudy 25 -3.9 23 -5 92 92 SSW 9 15 30.30 1026 10 16 0.00 0.00
10:53 pm 22:53 Mostly Cloudy 26 -3.3 22 -5.6 84 84 SSW 10 17 30.32 1027 10 16 0.00 0.00
11:53 pm 23:53 Mostly Cloudy 27 -2.8 23 -5 85 85 SW 10 17 30.33 1027 10 16 0.00 0.00

Powered by AerisWeather